Hourly Data Report for September 03, 2017

All times are specified in Local Standard Time (LST). Add 1 hour to adjust for Daylight Saving Time where and when it is observed.

ALERT CLIMATE
NUNAVUT

82°30'00.000" N
62°20'00.000" W
65.40 m
2400305
71355
ZLT

Download Data

Hourly Data (September 2017)
Hourly Data Report for September 3, 2017
Temp Definition
°C
Dew Point Temp Definition
°C
Rel Hum Definition
%
Wind Dir Definition
10's deg

Wind Spd Definition
km/h
Visibility Definition
km
Stn Press Definition
kPa
Hmdx Definition


Wind Chill Definition


Weather Definition


TIME
00:00 -10.7 -11.4 95 36 9   100.28   -16 LegendNANA
01:00 -9.8 -10.6 94 33 8   100.28   -14 LegendNANA
02:00 -9.8 -10.6 94 30 5   100.29   -13 LegendNANA
03:00 -10.2 -11.1 94 32 5   100.32   -13 LegendNANA
04:00 -9.7 -10.5 94 32 4   100.36   -12 LegendNANA
05:00 -9.9 -10.7 94 30 6   100.37   -13 LegendNANA
06:00 -9.5 -10.3 94 31 4   100.41   -12 LegendNANA
07:00 -10.0 -10.8 94 35 3   100.40   -12 LegendNANA
08:00 -10.1 -11.0 93 33 4   100.42   -12 LegendNANA
09:00 -9.7 -10.5 94 2 2   100.45   -11 LegendNANA
10:00 -9.7 -10.5 94 7 3   100.46   -11 LegendNANA
11:00 -9.3 -10.0 94 1 10   100.47   -14 LegendNANA
12:00 -9.0 -9.7 94 36 9   100.48   -14 LegendNANA
13:00 -8.7 -9.4 95 35 13   100.49   -15 LegendNANA
14:00 -8.6 -9.3 95 1 13   100.52   -15 LegendNANA
15:00 -8.5 -9.2 95 36 12   100.56   -14 LegendNANA
16:00 -8.0 -8.7 95 35 21   100.60   -16 LegendNANA
17:00 -7.6 -8.3 95 35 23   100.64   -15 LegendNANA
18:00 -7.5 -8.2 95 35 21   100.67   -15 LegendNANA
19:00 -7.5 -8.1 95 35 20   100.72   -15 LegendNANA
20:00 -7.3 -7.9 96 35 18   100.76   -14 LegendNANA
21:00 -7.3 -8.0 95 35 22   100.78   -15 LegendNANA
22:00 -7.3 -8.2 94 35 23   100.78   -15 LegendNANA
23:00 -7.2 -8.3 92 35 19   100.82   -14 LegendNANA

Notes on Data Quality.

Legend

  • E = Estimated
  • M = Missing
  • NA = Not Available
  • ‡ = Partner data that is not subject to review by the National Climate Archives
Date modified: